Location: Bannatyne
(13.0833°N, 59.5333°W)
Time: 12:24:09
(UTC+00:00)

USA 215 - Pass Details

Date: 18 October 2019
Orbit: 1099 x 1109 km, 123.0° (Epoch: 11 November)

Event Time Altitude Azimuth Distance (km) Brightness Sun altitude
Rises 22:22:40 0° 157° (SSE) 3,912 6.0 -11.7°
Reaches altitude 10° 22:25:15 10° 162° (SSE) 2,953 5.4 -12.3°
Maximum altitude 22:31:27 47° 234° (SW) 1,426 4.3 -13.8°
Drops below altitude 10° 22:37:39 10° 307° (NW) 2,949 6.2 -15.3°
Sets 22:40:14 0° 313° (NW) 3,905 6.8 -15.9°
